Weather History for McCall, ID

Change the Weather History Date:

Friday, February 8, 2013

  Actual Average Record
Temperature  
Mean Temperature 24 °F 21 °F  
Max Temperature 33 °F 32 °F 56 °F (1963)
Min Temperature 14 °F 10 °F -25 °F (1936)
Degree Days  
Heating Degree Days 41 44  
Month to date heating degree days 310 352  
Since 1 July heating degree days 5163 5826  
Cooling Degree Days 0 0  
Month to date cooling degree days 0 0  
Year to date cooling degree days 0 0  
Moisture  
Dew Point 16 °F    
Average Humidity 73    
Maximum Humidity 92    
Minimum Humidity 54    
Precipitation  
Precipitation 0.00 in 0.07 in 0.83 in (1945)
Month to date precipitation 0.02 0.60  
Year to date precipitation 2.92 2.33  
Sea Level Pressure  
Sea Level Pressure 29.96 in    
Wind  
Wind Speed 9 mph (NNW)    
Max Wind Speed 18 mph    
Max Gust Speed 28 mph    
Visibility 10 miles    
Events      
T = Trace of Precipitation, MM = Missing Value Source: NWS Daily Summary

Daily Weather History Graph

Daily Weather History Graph

Search for Another Location

Airport:

Trip Planner

Search our weather history database for the weather conditions in past years. The results will help you decide how hot, cold, wet, or windy it might be!

Date:

Astronomy

Feb. 08, 2013 Rise Set
Actual Time 7:54 AM MST 6:03 PM MST
Civil Twilight 7:24 AM MST 6:33 PM MST
Nautical Twilight 6:49 AM MST 7:08 PM MST
Astronomical Twilight 6:15 AM MST 7:42 PM MST
Moon 6:28 AM MST (2/8) 4:40 PM MST (2/8)
Length of Visible Light 11h 09m
Length of Day
10h 08m
Waning Crescent, 3% of the Moon is Illuminated
Feb 8
Waning Crescent
Feb 10
New
Feb 17
First Quarter
Feb 25
Full
Mar 4
Last Quarter

Hourly Weather History & Observations

Time (MST) Temp. Windchill Dew Point Humidity Pressure Visibility Wind Dir Wind Speed Gust Speed Precip Events Conditions
12:51 AM 19.9 °F 14.9 °F 17.1 °F 89% 29.97 in 9.0 mi NNE 3.5 mph - N/A   Mostly Cloudy
1:26 AM 21.2 °F 16.4 °F 17.6 °F 86% 29.87 in 10.0 mi North 3.5 mph - N/A   Overcast
1:51 AM 19.9 °F 13.4 °F 17.1 °F 89% 29.96 in 10.0 mi North 4.6 mph - N/A   Mostly Cloudy
2:51 AM 18.0 °F 11.1 °F 14.0 °F 84% 29.97 in 10.0 mi NNW 4.6 mph - N/A   Mostly Cloudy
3:51 AM 17.1 °F 11.7 °F 14.0 °F 88% 29.97 in 10.0 mi North 3.5 mph - N/A   Partly Cloudy
4:51 AM 18.0 °F 11.1 °F 15.1 °F 88% 29.96 in 10.0 mi NNW 4.6 mph - N/A   Clear
5:51 AM 15.1 °F - 12.9 °F 91% 29.98 in 10.0 mi Calm Calm - N/A   Clear
6:51 AM 19.0 °F - 17.1 °F 92% 29.97 in 10.0 mi Calm Calm - N/A   Clear
7:51 AM 19.0 °F 13.9 °F 17.1 °F 92% 29.97 in 10.0 mi NW 3.5 mph - N/A   Clear
8:51 AM 19.9 °F 12.1 °F 16.0 °F 85% 29.98 in 10.0 mi NNW 5.8 mph - N/A   Clear
9:51 AM 28.0 °F 18.6 °F 18.0 °F 66% 29.97 in 10.0 mi North 10.4 mph 18.4 mph N/A   Clear
10:51 AM 28.9 °F 19.2 °F 18.0 °F 64% 29.98 in 10.0 mi NNW 11.5 mph - N/A   Mostly Cloudy
11:51 AM 30.9 °F 20.7 °F 18.0 °F 59% 29.97 in 10.0 mi North 13.8 mph 17.3 mph N/A   Clear
12:51 PM 30.9 °F 20.7 °F 18.0 °F 59% 29.95 in 10.0 mi NNW 13.8 mph - N/A   Clear
1:51 PM 32.0 °F 22.1 °F 19.0 °F 59% 29.94 in 10.0 mi NNW 13.8 mph 23.0 mph N/A   Clear
2:51 PM 32.0 °F 21.2 °F 18.0 °F 56% 29.94 in 10.0 mi North 16.1 mph 27.6 mph N/A   Clear
3:51 PM 30.9 °F 20.2 °F 18.0 °F 59% 29.94 in 10.0 mi NNW 15.0 mph 24.2 mph N/A   Clear
4:51 PM 30.0 °F 19.1 °F 17.1 °F 59% 29.94 in 10.0 mi NNW 15.0 mph 23.0 mph N/A   Clear
5:51 PM 28.0 °F 16.5 °F 17.1 °F 63% 29.97 in 10.0 mi North 15.0 mph 19.6 mph N/A   Clear
6:51 PM 27.0 °F 15.2 °F 17.1 °F 66% 29.98 in 10.0 mi North 15.0 mph 23.0 mph N/A   Clear
7:51 PM 26.1 °F 15.0 °F 16.0 °F 66% 29.98 in 10.0 mi North 12.7 mph 21.9 mph N/A   Clear
8:51 PM 24.1 °F 13.7 °F 15.1 °F 69% 29.99 in 10.0 mi NW 10.4 mph - N/A   Clear
9:51 PM 24.1 °F 14.4 °F 14.0 °F 65% 29.97 in 10.0 mi NNW 9.2 mph - N/A   Clear
10:51 PM 24.1 °F 14.4 °F 14.0 °F 65% 29.97 in 10.0 mi NW 9.2 mph - N/A   Clear
11:51 PM 24.1 °F 14.4 °F 14.0 °F 65% 29.96 in 10.0 mi NNW 9.2 mph - N/A   Clear